[[{"header":{"parameterUnit":"m.s-1","parameterCategory":1,"la1":30.2991,"la2":30.254,"lo1":-89.0895,"lo2":-89.0444,"dy":0.0017,"dx":0.0017,"nx":28,"ny":28,"refTime":"2024-06-26T09:00:00:Z","depth":0,"parameterNumber":2,"parameterNumberName":"U-component_of_WINDS"},"data":[0,0,0,0,0,0,0,0,0,0,0,0,0,0,0,0,0,0,0,0,0,0,0,0,0,0,0,0,0,0,0,0,0,0,0,0,0,0,0,0,0,0,0,0,0,0,0,0,0,0,0,0,0,0,0,0,0,0,3.8348,3.8349,0,3.8407,3.8408,3.8409,3.8271,3.8266,3.8262,3.8258,3.8327,3.8333,3.8339,0,0,0,0,0,0,0,0,0,0,0,0,0,3.8125,3.813,3.8348,3.8349,3.8349,3.8407,3.8408,3.8409,3.8271,3.8266,3.8261,3.8256,3.8325,3.8332,3.8339,0,0,0,0,0,0,0,0,0,0,0,0,0,3.8208,3.8132,3.8348,3.8288,3.8283,3.8407,3.8408,3.8409,3.8273,3.8266,3.8259,3.8253,3.8323,3.8331,3.834,3.8528,0,0,3.8368,3.8371,0,0,0,0,0,0,0,0,3.8203,3.8216,3.8296,3.8292,3.8287,3.8324,3.8355,3.8449,3.8274,3.8277,3.8257,3.825,3.8332,3.834,3.8366,3.8531,3.8534,3.8368,3.8374,3.8378,3.838,0,0,0,0,0,0,0,3.8198,3.8213,3.8371,3.8297,3.8292,3.8261,3.8265,3.8372,3.8341,3.8276,3.8266,3.8275,3.8328,3.8358,3.8366,3.8535,3.8368,3.8376,3.8382,3.8385,3.8862,3.8869,0,0,0,0,0,0,3.8198,3.8209,3.837,3.8373,3.8227,3.827,3.8275,3.8319,3.834,3.8336,3.828,3.8268,3.8346,3.8356,3.8368,3.8592,3.8378,3.8386,3.8391,3.8855,3.8864,3.8872,0,0,0,0,0,0,3.8194,3.8214,3.8367,3.8288,3.8305,3.8281,3.8332,3.8324,3.8353,3.8342,3.8337,3.8315,3.8341,3.8356,3.849,3.8592,3.839,3.8398,3.8846,3.8858,3.8868,3.9039,0,0,0,0,0,0,3.8188,3.8213,3.8282,3.8291,3.831,3.8485,3.8338,3.833,3.8367,3.8352,3.8374,3.8371,3.8337,3.8477,3.8499,3.8601,3.8405,3.8837,3.8851,3.8864,3.9024,3.9054,3.908,0,0,0,0,0,3.8181,3.8329,3.8286,3.8306,3.8395,3.8491,3.8502,3.8457,3.8376,3.8447,3.8441,3.837,3.8577,3.8492,3.8515,3.8622,3.883,3.8847,3.8863,3.9011,3.9049,3.908,0,0,0,0,0,0,3.8335,3.8329,3.8281,3.8436,3.8465,3.8467,3.8555,3.8498,3.8552,3.8536,3.848,3.8486,3.8632,3.864,3.8545,3.8806,3.869,3.8712,3.8795,3.8831,3.8858,3.8854,3.8413,0,0,0,0,0,3.8386,3.8462,3.8454,3.8591,3.8608,3.858,3.862,3.8582,3.8611,3.8624,3.8627,3.8661,3.8733,3.8782,3.8848,3.9025,3.9029,3.911,3.9138,3.9161,3.9181,3.9278,3.9314,3.8925,3.8925,3.8925,0,0,3.8494,3.8501,3.8552,3.8623,3.864,3.8723,3.8591,3.8683,3.8745,3.8638,3.8764,3.8769,3.8803,3.896,3.9029,3.8971,3.929,3.9182,3.92,3.9208,3.9299,3.9336,3.9368,3.8937,3.8935,3.8933,0,0,3.8734,3.8745,3.8861,3.8882,3.8911,3.8891,3.892,3.8932,3.893,3.9055,3.8977,3.9052,3.9178,3.9205,3.9236,3.949,3.9428,3.9513,3.9661,3.9756,3.9787,3.9813,3.9906,3.994,3.9533,3.9533,3.9534,0,3.8865,3.8983,3.893,3.9028,3.9063,3.8968,3.9089,3.9112,3.9162,3.919,3.9124,3.9281,3.9297,3.946,3.9522,3.9549,3.9583,3.951,3.9786,3.9812,3.9837,3.9925,3.996,3.9543,3.9542,3.9541,3.954,0,3.9145,3.9229,3.9321,3.9369,3.9414,3.9524,3.949,3.9543,3.9503,3.9492,3.9623,3.9639,3.9708,3.9744,3.9706,3.9903,3.9866,3.9794,3.9677,3.9885,3.9967,4.0,3.9558,3.9554,3.9551,3.9549,0,0,3.9482,3.95,3.9535,3.9557,3.9582,3.9648,3.9755,3.982,3.9868,3.9907,3.9997,4.0106,4.004,4.0075,4.004,4.0124,4.0327,4.0041,4.0041,4.0096,4.0549,4.0604,4.0643,4.0286,4.0292,4.0297,4.0546,0,3.972,3.9899,3.9855,4.0035,4.0114,4.0027,4.012,4.0148,4.0142,4.021,4.0204,4.0283,4.0188,4.0209,4.0288,4.0285,4.0417,4.0267,4.0373,4.0377,4.0368,4.0685,4.0743,4.0978,4.0578,4.0583,4.0587,0,4.002,4.0069,4.0256,4.0271,4.0302,4.0387,4.0444,4.051,4.0542,4.0531,4.0572,4.0522,4.0631,4.0513,4.0665,4.0563,4.0605,4.061,4.0619,4.0628,4.0495,4.0705,4.1051,4.1087,4.0636,4.0632,4.0629,0,4.025,4.0362,4.0489,4.051,4.053,4.0592,4.0605,4.0629,4.0672,4.0724,4.0752,4.0817,4.0853,4.0906,4.0876,4.0792,4.1035,4.0913,4.1033,4.1034,4.1088,4.1085,4.1448,4.1113,4.1112,4.1112,4.1111,0,4.052,4.0639,4.0592,4.0671,4.0802,4.0753,4.0886,4.0888,4.0911,4.0991,4.0921,4.0998,4.0953,4.1028,4.1006,4.1137,4.1154,4.1151,4.1144,4.1158,4.1159,4.1185,4.1168,4.1121,4.1119,4.1117,4.1116,0,4.0798,4.0771,4.0904,4.0913,4.0918,4.1015,4.1024,4.1099,4.1087,4.119,4.1211,4.1195,4.128,4.1255,4.1347,4.1332,4.1499,4.147,4.1488,4.1481,4.1603,4.1592,4.1995,4.2047,4.1678,4.1681,4.1684,0,4.0973,4.1062,4.108,4.1127,4.1144,4.1221,4.1265,4.1221,4.127,4.1314,4.1385,4.1463,4.1523,4.1664,4.1662,4.1733,4.1707,4.1844,4.1718,4.173,4.1712,4.1707,4.1717,4.1869,4.1873,4.1877,4.188,0,4.1287,4.127,4.1333,4.1394,4.1447,4.1493,4.1533,4.1577,4.1536,4.1596,4.168,4.1727,4.1821,4.1902,4.1967,4.1983,4.1927,4.1919,4.1951,4.1967,4.1974,4.1974,4.1558,4.191,4.1907,4.1905,4.1903,4.1902,4.152,4.1596,4.1621,4.1695,4.1721,4.176,4.1832,4.1829,4.1898,4.197,4.1941,4.2039,4.2073,4.2154,4.2179,4.2258,4.2206,4.2252,4.2263,4.2276,4.2292,4.1961,4.227,4.2269,4.2268,4.2267,4.2266,0,4.1832,4.1844,4.1913,4.197,4.203,4.1969,4.2011,4.2066,4.2153,4.2187,4.2248,4.2348,4.2426,4.2431,4.2504,4.2567,4.2544,4.2588,4.2584,4.2589,4.2333,4.2299,4.2606,4.2606,4.2606,4.2606,4.2606,4.2606,4.2001,4.2127,4.2114,4.2253,4.2265,4.2359,4.2389,4.2427,4.2454,4.2568,4.2631,4.2633,4.2657,4.2733,4.2803,4.2803,4.2834,4.289,4.288,4.2641,4.2607,4.2575,4.2542,4.2896,4.2897,4.313,4.3132,4.3134]},{"header":{"parameterUnit":"m.s-1","parameterCategory":1,"la1":30.2991,"la2":30.254,"lo1":-89.0895,"lo2":-89.0444,"dy":0.0017,"dx":0.0017,"nx":28,"ny":28,"refTime":"2024-06-26T09:00:00:Z","depth":0,"parameterNumber":3,"parameterNumberName":"V-component_of_WINDS"},"data":[0,0,0,0,0,0,0,0,0,0,0,0,0,0,0,0,0,0,0,0,0,0,0,0,0,0,0,0,0,0,0,0,0,0,0,0,0,0,0,0,0,0,0,0,0,0,0,0,0,0,0,0,0,0,0,0,0,0,-0.8138,-0.8139,0,-0.8205,-0.8206,-0.8207,-0.8272,-0.8273,-0.8274,-0.8274,-0.834,-0.8341,-0.8342,0,0,0,0,0,0,0,0,0,0,0,0,0,-0.806,-0.8061,-0.8138,-0.8139,-0.814,-0.8205,-0.8206,-0.8207,-0.8272,-0.8273,-0.8274,-0.8275,-0.8339,-0.8341,-0.8342,0,0,0,0,0,0,0,0,0,0,0,0,0,-0.8107,-0.8061,-0.8138,-0.818,-0.8184,-0.8205,-0.8206,-0.8207,-0.8271,-0.8273,-0.8274,-0.8275,-0.8339,-0.834,-0.8342,-0.8325,0,0,-0.8346,-0.8347,0,0,0,0,0,0,0,0,-0.8104,-0.811,-0.8173,-0.8177,-0.8182,-0.8232,-0.8203,-0.8247,-0.8271,-0.8238,-0.8274,-0.8276,-0.8302,-0.8307,-0.8317,-0.8329,-0.8331,-0.8346,-0.8347,-0.8348,-0.8348,0,0,0,0,0,0,0,-0.8101,-0.8107,-0.8165,-0.8174,-0.8179,-0.8194,-0.8202,-0.8211,-0.8262,-0.8241,-0.8246,-0.8253,-0.8305,-0.8315,-0.8319,-0.8332,-0.8346,-0.8348,-0.8348,-0.8349,-0.8332,-0.8331,0,0,0,0,0,0,-0.8092,-0.8104,-0.8162,-0.8167,-0.8146,-0.8194,-0.8203,-0.8214,-0.8262,-0.8271,-0.8252,-0.8256,-0.8312,-0.8317,-0.8321,-0.8305,-0.8348,-0.8349,-0.835,-0.8333,-0.8332,-0.833,0,0,0,0,0,0,-0.809,-0.8096,-0.816,-0.8137,-0.8146,-0.8194,-0.8206,-0.8215,-0.8225,-0.8271,-0.828,-0.8254,-0.8313,-0.8319,-0.8324,-0.8308,-0.835,-0.8351,-0.8335,-0.8333,-0.8331,-0.8271,0,0,0,0,0,0,-0.8087,-0.8095,-0.8091,-0.8136,-0.8147,-0.8162,-0.8205,-0.8215,-0.8228,-0.8234,-0.8274,-0.8282,-0.8315,-0.8321,-0.8325,-0.8311,-0.8352,-0.8336,-0.8334,-0.8332,-0.8275,-0.8268,-0.8261,0,0,0,0,0,-0.8084,-0.8071,-0.8091,-0.8097,-0.8143,-0.8161,-0.8167,-0.8206,-0.8226,-0.8222,-0.825,-0.8281,-0.8309,-0.8321,-0.8326,-0.8312,-0.8338,-0.8335,-0.8332,-0.8278,-0.8269,-0.8261,0,0,0,0,0,0,-0.8022,-0.8078,-0.81,-0.8101,-0.8126,-0.8172,-0.8168,-0.8196,-0.8215,-0.8219,-0.8265,-0.8273,-0.8272,-0.8292,-0.8305,-0.8297,-0.8327,-0.8325,-0.8285,-0.8276,-0.827,-0.8265,-0.8353,0,0,0,0,0,-0.8009,-0.8021,-0.8068,-0.8065,-0.8076,-0.8119,-0.8129,-0.8157,-0.8184,-0.8194,-0.8224,-0.8248,-0.8262,-0.827,-0.8286,-0.8278,-0.8287,-0.827,-0.8263,-0.8257,-0.8255,-0.8251,-0.8243,-0.8321,-0.8321,-0.8321,0,0,-0.7981,-0.8013,-0.8018,-0.8053,-0.8076,-0.8085,-0.8128,-0.8137,-0.8144,-0.8195,-0.8202,-0.8224,-0.8253,-0.8251,-0.8252,-0.8268,-0.8235,-0.8253,-0.8248,-0.8249,-0.8247,-0.8239,-0.8233,-0.8319,-0.8319,-0.8319,0,0,-0.7936,-0.7961,-0.7961,-0.7982,-0.8016,-0.8045,-0.8044,-0.8086,-0.8102,-0.811,-0.8148,-0.8156,-0.8179,-0.8199,-0.8211,-0.817,-0.8198,-0.8174,-0.8138,-0.8133,-0.8127,-0.8122,-0.8107,-0.8101,-0.8171,-0.8171,-0.8171,0,-0.7897,-0.7915,-0.7957,-0.7963,-0.7977,-0.8024,-0.8022,-0.804,-0.8077,-0.8084,-0.8102,-0.8131,-0.8155,-0.8157,-0.8147,-0.8156,-0.8155,-0.817,-0.8125,-0.812,-0.8116,-0.8102,-0.8096,-0.8168,-0.8168,-0.8169,-0.8169,0,-0.7865,-0.7876,-0.7871,-0.7906,-0.7919,-0.7921,-0.7961,-0.7969,-0.7994,-0.802,-0.8025,-0.8055,-0.8076,-0.8079,-0.8104,-0.8084,-0.8093,-0.8117,-0.8148,-0.8105,-0.8092,-0.8087,-0.8163,-0.8164,-0.8165,-0.8166,0,0,-0.7785,-0.7841,-0.7838,-0.7854,-0.7893,-0.7902,-0.7905,-0.7927,-0.7932,-0.7954,-0.7957,-0.7975,-0.7997,-0.8011,-0.8038,-0.8034,-0.7998,-0.8059,-0.806,-0.8046,-0.7977,-0.7959,-0.7952,-0.8017,-0.8016,-0.8015,-0.7974,0,-0.7746,-0.7756,-0.7793,-0.7791,-0.7801,-0.7845,-0.7847,-0.787,-0.7894,-0.7904,-0.793,-0.7941,-0.797,-0.7979,-0.7977,-0.8003,-0.7985,-0.8007,-0.8019,-0.8019,-0.8011,-0.7945,-0.7927,-0.7887,-0.797,-0.7969,-0.7968,0,-0.7703,-0.7723,-0.7723,-0.776,-0.7766,-0.7768,-0.7789,-0.7799,-0.7825,-0.7843,-0.7857,-0.7887,-0.7891,-0.7919,-0.7924,-0.7938,-0.7944,-0.7958,-0.7957,-0.796,-0.7991,-0.7946,-0.7875,-0.7869,-0.7961,-0.7961,-0.7962,0,-0.7644,-0.7671,-0.7674,-0.7686,-0.7729,-0.7729,-0.7747,-0.7775,-0.7785,-0.7803,-0.781,-0.7827,-0.7837,-0.7849,-0.7883,-0.79,-0.7883,-0.7914,-0.7896,-0.7895,-0.7892,-0.7891,-0.782,-0.7895,-0.7895,-0.7895,-0.7895,0,-0.7598,-0.7596,-0.7648,-0.765,-0.7648,-0.7688,-0.7685,-0.7707,-0.773,-0.7736,-0.7773,-0.7777,-0.7821,-0.7829,-0.7854,-0.7853,-0.7858,-0.787,-0.7877,-0.7868,-0.7866,-0.7873,-0.7877,-0.7894,-0.7894,-0.7894,-0.7895,0,-0.7533,-0.7568,-0.7574,-0.7614,-0.7624,-0.762,-0.7654,-0.7656,-0.7681,-0.7687,-0.7691,-0.7729,-0.7741,-0.7775,-0.7795,-0.7812,-0.7803,-0.7816,-0.7795,-0.7799,-0.7779,-0.778,-0.771,-0.7702,-0.7782,-0.7781,-0.778,0,-0.7502,-0.7501,-0.754,-0.7547,-0.7564,-0.7574,-0.7584,-0.7622,-0.7631,-0.7659,-0.7658,-0.7672,-0.7686,-0.7702,-0.7731,-0.7745,-0.7759,-0.7733,-0.7761,-0.7751,-0.7758,-0.7758,-0.7757,-0.7727,-0.7726,-0.7725,-0.7724,0,-0.7442,-0.7459,-0.7473,-0.7492,-0.7503,-0.752,-0.7538,-0.7541,-0.7584,-0.7591,-0.7604,-0.7614,-0.7634,-0.7647,-0.7666,-0.7683,-0.771,-0.7715,-0.7712,-0.7702,-0.7689,-0.7695,-0.7778,-0.7717,-0.7718,-0.7718,-0.7719,-0.7719,-0.7393,-0.7394,-0.7421,-0.7435,-0.7453,-0.7469,-0.7473,-0.7497,-0.7509,-0.7528,-0.7549,-0.7559,-0.7582,-0.7611,-0.7625,-0.7631,-0.7646,-0.7641,-0.764,-0.7639,-0.7634,-0.7687,-0.7635,-0.7635,-0.7635,-0.7636,-0.7636,0,-0.7336,-0.7355,-0.7367,-0.7391,-0.7401,-0.7426,-0.7447,-0.7454,-0.7462,-0.7482,-0.7494,-0.7507,-0.7519,-0.7548,-0.7562,-0.7562,-0.7575,-0.7564,-0.7565,-0.7568,-0.762,-0.7621,-0.7554,-0.7554,-0.7554,-0.7554,-0.7554,-0.7554,-0.7307,-0.7309,-0.7328,-0.7339,-0.7358,-0.7368,-0.7378,-0.7392,-0.7408,-0.7421,-0.7431,-0.745,-0.7473,-0.7489,-0.75,-0.7508,-0.7512,-0.7497,-0.7509,-0.7557,-0.7565,-0.7572,-0.7574,-0.7498,-0.7498,-0.7457,-0.7457,-0.7457]}]]